This demonstration page uses our WeatherBlox Daily Observations layout. Learn more.

Left ArrowRight Arrow

41.86663, -103.66717

Hourly Observations for October 28, 2018

Temp ( °F °C ) Dew Point ( °F °C ) Humidity (%) Winds ( mph kmh ) Pressure ( in mb ) Visibility ( mi km ) Precip ( " mm )
12:53 am 00:53 Clear 38 3.3 35 1.7 89 89 N 7 11 30.11 1020 10 16 0.00 0.00
1:53 am 01:53 Partly Cloudy 38 3.3 35 1.7 89 89 NNW 5 7 30.11 1020 10 16 0.00 0.00
2:53 am 02:53 Clear 36 2.2 34 1.1 93 93 NW 6 9 30.14 1021 10 16 0.00 0.00
3:53 am 03:53 Clear 34 1.1 33 0.6 97 97 Calm 30.16 1021 10 16 0.00 0.00
4:53 am 04:53 Clear 32 0 31 -0.6 96 96 Calm 30.17 1022 10 16 0.00 0.00
5:53 am 05:53 Clear 32 0 30 -1.1 92 92 Calm 30.20 1023 10 16 0.00 0.00
6:53 am 06:53 Clear 29 -1.7 29 -1.7 100 100 E 5 7 30.22 1023 10 16 0.00 0.00
7:53 am 07:53 Sunny 32 0 31 -0.6 96 96 E 3 6 30.21 1023 10 16 0.00 0.00
8:53 am 08:53 Sunny 40 4.4 36 2.2 86 86 SSE 3 6 30.21 1023 10 16 0.00 0.00
9:53 am 09:53 Sunny 47 8.3 38 3.3 71 71 SE 5 7 30.18 1022 10 16 0.00 0.00
10:53 am 10:53 Sunny 53 11.7 39 3.9 59 59 Calm 30.16 1021 10 16 0.00 0.00
11:53 am 11:53 Sunny 58 14.4 40 4.4 51 51 VRB 3 6 30.11 1020 10 16 0.00 0.00
12:53 pm 12:53 Sunny 63 17.2 41 5 45 45 VRB 3 6 30.05 1018 10 16 0.00 0.00
1:53 pm 13:53 Sunny 68 20 41 5 38 38 SSE 5 7 29.99 1016 10 16 0.00 0.00
2:53 pm 14:53 Sunny 71 21.7 40 4.4 32 32 SSE 5 7 29.96 1014 10 16 0.00 0.00
3:53 pm 15:53 Sunny 72 22.2 39 3.9 30 30 SE 7 11 29.94 1014 10 16 0.00 0.00
4:53 pm 16:53 Sunny 73 22.8 39 3.9 29 29 SSE 6 9 29.93 1013 10 16 0.00 0.00
5:53 pm 17:53 Sunny 65 18.3 39 3.9 39 39 SE 8 13 29.94 1014 10 16 0.00 0.00
6:53 pm 18:53 Clear 54 12.2 37 2.8 53 53 E 6 9 29.98 1015 10 16 0.00 0.00
7:53 pm 19:53 Clear 55 12.8 38 3.3 53 53 ESE 10 17 29.98 1015 10 16 0.00 0.00
8:53 pm 20:53 Clear 52 11.1 39 3.9 61 61 E 9 15 29.95 1014 10 16 0.00 0.00
9:53 pm 21:53 Clear 50 10 39 3.9 66 66 ESE 10 17 29.93 1014 10 16 0.00 0.00
10:53 pm 22:53 Clear 47 8.3 39 3.9 74 74 E 8 13 29.92 1013 10 16 0.00 0.00
11:53 pm 23:53 Clear 44 6.7 38 3.3 79 79 E 6 9 29.90 1013 10 16 0.00 0.00

Powered by AerisWeather